Tracking 19212 objects as of 16-Jul-2018
HD Live streaming from Space Station
objects crossing your sky now

CLUSTER II-FM7

Track CLUSTER II-FM7 now!
CLUSTER II-FM7 is classified as:


NORAD ID: 26411
Int'l Code: 2000-041B
Perigee: 30,170.4 km
Apogee: 102,851.3 km
Inclination: 130.2 °
Period: 3,263.5 minutes
Semi major axis: 72881 km
RCS: 1.5887 m2 (large)
Launch date: July 16, 2000
Source: European Space Agency (ESA)
Launch site: TYURATAM MISSILE AND SPACE COMPLEX (TTMTR)
aabbcc
Your satellite tracking list
Your tracking list is empty




NASA's NSSDC Master Catalog

Two Line Element Set (TLE):
1 26411U 00041B   18198.26454562  .00000036  00000-0  00000+0 0  9998
2 26411 130.1534 337.4925 4986213 170.8423 358.9355  0.44123917 19328
Source of the keplerian elements: AFSPC